Location: Krasnoyarskiy Pitomnik
(51.1333°N, 71.6167°E)
Time: 15:06:22
(UTC+00:00)

NOSS 2-2 (C) - Visible Passes

Search period start: 23 September 2023 00:00
Search period end: 03 October 2023 00:00
Orbit: 416 x 1761 km, 63.3° (Epoch: 21 September)

Date Brightness Start Highest point End Pass type
(mag) Time Alt. Az. Time Alt. Az. Time Alt. Az.
23 Sep 4.8 00:20:17 10° WNW 00:24:33 35° SW 00:30:17 10° S visible
23 Sep 5.2 21:42:43 25° N 21:44:22 34° NE 21:49:16 10° E visible
23 Sep 4.0 23:30:24 10° NW 23:34:48 57° SW 23:40:57 10° SSE visible
24 Sep 5.8 20:55:01 23° NE 20:55:01 23° NE 20:58:24 10° E visible
24 Sep 3.8 22:42:07 22° NW 22:45:00 88° NE 22:51:06 10° SE visible
25 Sep 5.5 00:31:31 10° WNW 00:35:09 20° WSW 00:39:37 10° SSW visible
25 Sep 5.1 14:29:07 10° SSE 14:29:25 11° SSE 14:29:25 11° SSE visible
25 Sep 4.4 21:54:37 51° NNE 21:55:10 55° NE 22:00:50 10° ESE visible
25 Sep 4.8 23:41:44 13° WNW 23:45:26 33° SW 23:51:04 10° S visible
26 Sep 5.0 15:28:14 10° SW 15:29:12 18° SW 15:29:12 18° SW visible
26 Sep 5.7 21:07:18 25° E 21:07:18 25° E 21:10:13 10° ESE visible
26 Sep 4.0 22:54:26 43° W 22:55:39 54° SW 23:01:47 10° SSE visible
27 Sep 3.1 14:38:40 10° SSW 14:41:43 41° SE 14:41:43 41° SE visible
27 Sep 4.5 22:07:20 49° SE 22:07:20 49° SE 22:11:57 10° SE visible
27 Sep 5.4 23:54:29 17° W 23:55:58 19° WSW 00:00:15 10° SSW visible
28 Sep 4.2 13:49:46 10° S 13:52:12 19° ESE 13:54:05 13° E visible
28 Sep 4.5 15:39:02 10° WSW 15:41:11 32° WNW 15:41:11 32° WNW visible
28 Sep 6.3 21:20:25 16° ESE 21:20:25 16° ESE 21:21:41 10° ESE visible
28 Sep 5.2 23:07:35 28° SSW 23:07:35 28° SSW 23:11:46 10° S visible
29 Sep 2.8 14:49:00 10° SW 14:52:13 80° NW 14:53:23 37° NE visible
29 Sep 6.1 22:20:48 18° SSE 22:20:48 18° SSE 22:22:31 10° SSE visible
30 Sep 3.1 13:59:22 10° SSW 14:02:30 45° SE 14:05:27 11° NE visible
30 Sep 5.2 15:50:12 10° W 15:52:31 23° NW 15:52:31 23° NW visible
01 Oct 4.2 14:59:47 10° WSW 15:02:48 37° NW 15:04:28 22° NNE visible
02 Oct 2.9 14:09:41 10° SW 14:12:54 74° NW 14:16:14 10° NE visible
02 Oct 5.7 16:01:34 10° WNW 16:03:21 16° NNW 16:03:21 16° NNW visible
